Regional Weather Roundup
Issued by NWS Cleveland, OH

Home | Current Version | Previous Version | Graphics & Text | Print | Product List | Glossary On
Versions: 1 2 3 4 5 6 7 8 9 10 11 12 13 14 15 16 17 18 19 20 21 22 23 24 25 26 27 28 29 30 31 32 33 34 35 36 37 38 39 40 41 42 43 44 45 46 47 48 49 50
451
ASUS41 KCLE 221502
RWRCLE
OHIO REGIONAL WEATHER ROUNDUP
NATIONAL WEATHER SERVICE CLEVELAND, OH
1100 AM EDT SUN APR 22 2018

NOTE: "FAIR" INDICATES FEW OR NO CLOUDS BELOW 12,000 FEET WITH NO
SIGNIFICANT WEATHER AND/OR OBSTRUCTIONS TO VISIBILITY.

OHZ001>008-015>018-024>027-034-035-043-044-221600-
   NORTHWEST OHIO

CITY           SKY/WX    TMP DP  RH WIND       PRES   REMARKS
DEFIANCE       FAIR      53  29  39 NE15      30.39F
FINDLAY        FAIR      53  30  41 NE12      30.37S
TOLEDO EXPRESS FAIR      53  29  39 E15       30.41R
TOLEDO EXEC    FAIR      51  30  44 E12       30.42S
LIMA           FAIR      51  33  50 NE8       30.36S
$$

OHZ009>014-019>023-028>033-038-089-221600-
   NORTHEAST OHIO

CITY           SKY/WX    TMP DP  RH WIND       PRES   REMARKS
CLE-HOPKINS    PTSUNNY   52  32  46 N7        30.41S
CLE-LAKEFRONT  FAIR      45  37  73 NE14      30.38F
CUY CO. ARPT   MOSUNNY   59  23  25 E10       30.39F
LORAIN-ELYRIA  FAIR      52  27  38 NE12      30.38S
ASHTABULA      FAIR      55  23  28 E12G17    30.41S
AKRON-CANTON   PTSUNNY   55  28  35 NE10      30.36S
WOOSTER        FAIR      55  27  34 E13       30.36S
MANSFIELD      FAIR      54  29  38 NE8       30.36R
YOUNGSTOWN     PTSUNNY   56  25  30 NE12      30.37S
$$

OHZ042-051>053-060>062-070>072-077>081-221600-
  SOUTHWEST OHIO

CITY           SKY/WX    TMP DP  RH WIND       PRES   REMARKS
CINC-COVINGTON PTSUNNY   55  30  38 NE14      30.26F
CINC-LUNKEN    FAIR      56  36  47 NE10      30.30F
HAMILTON       FAIR      55  32  41 NE6       30.32S
DAYTON         CLOUDY    53  33  46 NE8       30.32S
WRIGHT-PAT AFB FAIR      53  31  42 NE10      30.31F
DAYTON GENERAL FAIR      53  32  44 E9        30.30S
WILMINGTON     FAIR      51  35  54 E7        30.30S
$$

OHZ036-037-039>041-045>050-054>059-063>069-073>076-082>088-221600-
  CENTRAL AND SOUTHEAST OHIO

CITY           SKY/WX    TMP DP  RH WIND       PRES   REMARKS
COLUMBUS       CLOUDY    56  30  37 NE6       30.33S
OSU AIRPORT    FAIR      55  31  39 NE9       30.33S
BOLTON FIELD   NOT AVBL
RICKENBACK AFB NOT AVBL
NEWARK         FAIR      54  30  40 NE5       30.32F
MARION         FAIR      55  29  36 E6        30.36R
LANCASTER      FAIR      54  35  48 VRB3      30.33S
ZANESVILLE     FAIR      56  29  35 NE6       30.33S
NEW PHILLY     FAIR      58  28  32 NE5       30.34F
$$




USA.gov is the U.S. government's official web portal to all federal, state and local government web resources and services.